[[{"header":{"parameterUnit":"m.s-1","parameterCategory":1,"la1":30.2991,"la2":30.254,"lo1":-89.0895,"lo2":-89.0444,"dy":0.0017,"dx":0.0017,"nx":28,"ny":28,"refTime":"2024-08-28T21:00:00:Z","depth":0,"parameterNumber":2,"parameterNumberName":"U-component_of_WINDS"},"data":[0,0,0,0,0,0,0,0,0,0,0,0,0,0,0,0,0,0,0,0,0,0,0,0,0,0,0,0,0,0,0,0,0,0,0,0,0,0,0,0,0,0,0,0,0,0,0,0,0,0,0,0,0,0,0,0,0,0,-2.2125,-2.2126,0,-2.2194,-2.2195,-2.2196,-2.2192,-2.2191,-2.219,-2.2189,-2.2259,-2.2262,-2.2265,0,0,0,0,0,0,0,0,0,0,0,0,0,-2.1988,-2.1991,-2.2125,-2.2126,-2.2127,-2.2194,-2.2195,-2.2196,-2.2192,-2.2191,-2.219,-2.2189,-2.2258,-2.2262,-2.2265,0,0,0,0,0,0,0,0,0,0,0,0,0,-2.2052,-2.1992,-2.2125,-2.2133,-2.2134,-2.2194,-2.2195,-2.2196,-2.2192,-2.2191,-2.2189,-2.2188,-2.2257,-2.2261,-2.2265,-2.2321,0,0,-2.2278,-2.228,0,0,0,0,0,0,0,0,-2.2048,-2.2057,-2.2131,-2.2132,-2.2134,-2.2183,-2.2173,-2.2238,-2.2193,-2.217,-2.2189,-2.2187,-2.2235,-2.2241,-2.2257,-2.2325,-2.2328,-2.2279,-2.2281,-2.2283,-2.2284,0,0,0,0,0,0,0,-2.2044,-2.2054,-2.2152,-2.2132,-2.2134,-2.2133,-2.214,-2.2185,-2.221,-2.2172,-2.2172,-2.218,-2.2236,-2.2253,-2.2259,-2.2329,-2.2279,-2.2282,-2.2285,-2.2286,-2.2445,-2.2447,0,0,0,0,0,0,-2.2038,-2.205,-2.215,-2.2154,-2.2086,-2.2136,-2.2145,-2.2169,-2.221,-2.2214,-2.2181,-2.218,-2.2247,-2.2254,-2.2261,-2.2329,-2.2283,-2.2287,-2.2289,-2.2444,-2.2446,-2.2448,0,0,0,0,0,0,-2.2035,-2.2047,-2.2147,-2.2102,-2.2115,-2.214,-2.2167,-2.2171,-2.2188,-2.2217,-2.2221,-2.2195,-2.2246,-2.2255,-2.2306,-2.2331,-2.2289,-2.2293,-2.2442,-2.2444,-2.2447,-2.2465,0,0,0,0,0,0,-2.2031,-2.2045,-2.2067,-2.2103,-2.2117,-2.2191,-2.2169,-2.2173,-2.2196,-2.2194,-2.223,-2.2235,-2.2245,-2.23,-2.2311,-2.2336,-2.2296,-2.2439,-2.2443,-2.2446,-2.2462,-2.2468,-2.2473,0,0,0,0,0,-2.2026,-2.2069,-2.2068,-2.208,-2.2145,-2.2193,-2.2201,-2.2213,-2.2198,-2.222,-2.2238,-2.2234,-2.2327,-2.2305,-2.2317,-2.2345,-2.2438,-2.2442,-2.2446,-2.246,-2.2467,-2.2473,0,0,0,0,0,0,-2.2036,-2.2074,-2.2073,-2.213,-2.2158,-2.2192,-2.222,-2.2219,-2.2252,-2.225,-2.2262,-2.227,-2.2321,-2.2338,-2.2313,-2.2401,-2.2381,-2.2387,-2.2388,-2.2394,-2.24,-2.2394,-2.2299,0,0,0,0,0,-2.2045,-2.2081,-2.2112,-2.2159,-2.2173,-2.2194,-2.2216,-2.2222,-2.2252,-2.2264,-2.2286,-2.2314,-2.235,-2.2373,-2.2408,-2.2465,-2.2473,-2.249,-2.2495,-2.2499,-2.2504,-2.2535,-2.2543,-2.246,-2.246,-2.246,0,0,-2.2063,-2.2089,-2.2111,-2.2162,-2.2184,-2.2221,-2.2204,-2.2244,-2.2271,-2.2269,-2.2319,-2.2336,-2.2369,-2.2424,-2.2449,-2.2439,-2.2529,-2.2504,-2.2507,-2.251,-2.254,-2.2548,-2.2555,-2.2463,-2.2462,-2.2462,0,0,-2.2115,-2.2139,-2.218,-2.2203,-2.2238,-2.2251,-2.2261,-2.2296,-2.2307,-2.2357,-2.2357,-2.2389,-2.2451,-2.2474,-2.2494,-2.2556,-2.2553,-2.2567,-2.2593,-2.2624,-2.263,-2.2636,-2.2657,-2.2665,-2.2572,-2.2572,-2.2572,0,-2.2134,-2.2189,-2.2201,-2.2241,-2.2263,-2.2264,-2.2306,-2.2328,-2.2372,-2.2387,-2.2376,-2.2453,-2.2476,-2.2535,-2.255,-2.2567,-2.2578,-2.2562,-2.2628,-2.2634,-2.264,-2.266,-2.2668,-2.2573,-2.2573,-2.2573,-2.2573,0,-2.221,-2.2248,-2.2277,-2.232,-2.2346,-2.2387,-2.2404,-2.2429,-2.2433,-2.2448,-2.2499,-2.2526,-2.2566,-2.258,-2.2585,-2.2641,-2.2634,-2.2626,-2.2605,-2.2649,-2.2668,-2.2676,-2.2575,-2.2575,-2.2574,-2.2574,0,0,-2.227,-2.2319,-2.2329,-2.2348,-2.2387,-2.2417,-2.2457,-2.2496,-2.2517,-2.2548,-2.2582,-2.2634,-2.2627,-2.2649,-2.2657,-2.2683,-2.2729,-2.2672,-2.2673,-2.2681,-2.2792,-2.2797,-2.2806,-2.2728,-2.273,-2.2731,-2.2789,0,-2.2325,-2.2397,-2.2409,-2.2472,-2.2507,-2.2509,-2.2544,-2.2571,-2.2587,-2.2619,-2.2635,-2.2672,-2.266,-2.2673,-2.27,-2.2718,-2.2752,-2.2714,-2.2759,-2.2761,-2.275,-2.2816,-2.2822,-2.2875,-2.2796,-2.2798,-2.2799,0,-2.2399,-2.2432,-2.2498,-2.2532,-2.2547,-2.2579,-2.2615,-2.2646,-2.2677,-2.2686,-2.2712,-2.2716,-2.2758,-2.2737,-2.2794,-2.2769,-2.2788,-2.28,-2.2802,-2.2806,-2.2782,-2.2821,-2.2892,-2.29,-2.2811,-2.281,-2.2809,0,-2.2435,-2.2496,-2.2543,-2.256,-2.26,-2.2622,-2.264,-2.267,-2.2693,-2.2725,-2.274,-2.2776,-2.2796,-2.2825,-2.2838,-2.2822,-2.2895,-2.2875,-2.2903,-2.2903,-2.2918,-2.2916,-2.2992,-2.2932,-2.2932,-2.2931,-2.2931,0,-2.2496,-2.2536,-2.256,-2.2589,-2.2634,-2.2648,-2.2692,-2.271,-2.2736,-2.2768,-2.2772,-2.2802,-2.2819,-2.2852,-2.2863,-2.2909,-2.2918,-2.2926,-2.2928,-2.2925,-2.2924,-2.2937,-2.2934,-2.2934,-2.2933,-2.2933,-2.2932,0,-2.2543,-2.2561,-2.2613,-2.2647,-2.2656,-2.2688,-2.2717,-2.2745,-2.2761,-2.2801,-2.2812,-2.2835,-2.2874,-2.2891,-2.2939,-2.2946,-2.2998,-2.2998,-2.2988,-2.2988,-2.3015,-2.3012,-2.3101,-2.3113,-2.3046,-2.3046,-2.3047,0,-2.258,-2.2611,-2.2649,-2.2671,-2.2689,-2.2724,-2.2748,-2.2762,-2.2786,-2.2824,-2.2847,-2.2886,-2.2918,-2.298,-2.3001,-2.3037,-2.3038,-2.3067,-2.3043,-2.3039,-2.3037,-2.3035,-2.3038,-2.307,-2.3071,-2.3072,-2.3072,0,-2.2644,-2.2651,-2.2684,-2.2721,-2.2748,-2.2778,-2.2807,-2.2824,-2.2843,-2.287,-2.291,-2.2934,-2.2983,-2.3021,-2.3059,-2.3077,-2.3078,-2.3079,-2.3088,-2.3084,-2.3077,-2.308,-2.2998,-2.3077,-2.3077,-2.3076,-2.3076,-2.3076,-2.2687,-2.2714,-2.2745,-2.2782,-2.2805,-2.2832,-2.286,-2.2878,-2.2911,-2.2952,-2.2959,-2.3001,-2.3031,-2.3082,-2.3101,-2.3134,-2.3127,-2.3139,-2.3142,-2.3145,-2.3146,-2.3072,-2.3141,-2.3141,-2.3141,-2.3141,-2.3141,0,-2.275,-2.2769,-2.2803,-2.2843,-2.2872,-2.2871,-2.2902,-2.2927,-2.2964,-2.2992,-2.3023,-2.3068,-2.3105,-2.313,-2.3167,-2.3189,-2.319,-2.3198,-2.3196,-2.32,-2.3151,-2.3139,-2.3197,-2.3197,-2.3197,-2.3197,-2.3197,-2.3196,-2.2786,-2.2832,-2.2843,-2.29,-2.292,-2.2961,-2.2979,-2.3004,-2.3026,-2.3077,-2.3108,-2.3123,-2.315,-2.3189,-2.3223,-2.3229,-2.3243,-2.3251,-2.3257,-2.321,-2.3204,-2.3198,-2.3188,-2.3254,-2.3254,-2.3304,-2.3304,-2.3304]},{"header":{"parameterUnit":"m.s-1","parameterCategory":1,"la1":30.2991,"la2":30.254,"lo1":-89.0895,"lo2":-89.0444,"dy":0.0017,"dx":0.0017,"nx":28,"ny":28,"refTime":"2024-08-28T21:00:00:Z","depth":0,"parameterNumber":3,"parameterNumberName":"V-component_of_WINDS"},"data":[0,0,0,0,0,0,0,0,0,0,0,0,0,0,0,0,0,0,0,0,0,0,0,0,0,0,0,0,0,0,0,0,0,0,0,0,0,0,0,0,0,0,0,0,0,0,0,0,0,0,0,0,0,0,0,0,0,0,3.5527,3.5528,0,3.5558,3.5559,3.5559,3.5489,3.5486,3.5484,3.5482,3.551,3.5513,3.5516,0,0,0,0,0,0,0,0,0,0,0,0,0,3.5404,3.5406,3.5527,3.5528,3.5528,3.5558,3.5559,3.5559,3.5489,3.5486,3.5484,3.5481,3.5509,3.5513,3.5516,0,0,0,0,0,0,0,0,0,0,0,0,0,3.5448,3.5407,3.5527,3.5497,3.5495,3.5558,3.5559,3.5559,3.549,3.5486,3.5483,3.548,3.5508,3.5512,3.5517,3.561,0,0,3.553,3.5532,0,0,0,0,0,0,0,0,3.5446,3.5453,3.5501,3.5499,3.5497,3.5516,3.5525,3.5576,3.5491,3.5491,3.5482,3.5478,3.5515,3.5518,3.5531,3.5612,3.5613,3.553,3.5533,3.5535,3.5536,0,0,0,0,0,0,0,3.5443,3.5451,3.5539,3.5502,3.5499,3.548,3.5483,3.5535,3.5521,3.5491,3.5486,3.5491,3.5513,3.5528,3.5532,3.5613,3.553,3.5534,3.5536,3.5538,3.577,3.5773,0,0,0,0,0,0,3.5444,3.5449,3.5538,3.554,3.5463,3.5485,3.5488,3.5513,3.5521,3.5519,3.5494,3.5487,3.5522,3.5527,3.5532,3.5641,3.5534,3.5538,3.5541,3.5766,3.5771,3.5775,0,0,0,0,0,0,3.5442,3.5453,3.5537,3.5493,3.5503,3.5491,3.552,3.5516,3.553,3.5523,3.552,3.5511,3.5519,3.5526,3.5591,3.5641,3.554,3.5544,3.5762,3.5768,3.5773,3.586,0,0,0,0,0,0,3.5439,3.5452,3.5489,3.5495,3.5505,3.5597,3.5523,3.5519,3.5538,3.553,3.5538,3.5536,3.5517,3.5585,3.5596,3.5645,3.5548,3.5758,3.5765,3.5771,3.5853,3.5868,3.5881,0,0,0,0,0,3.5434,3.5512,3.5491,3.5502,3.5551,3.56,3.5606,3.5583,3.5542,3.5578,3.5573,3.5536,3.5634,3.5593,3.5603,3.5655,3.5754,3.5763,3.577,3.5846,3.5865,3.588,0,0,0,0,0,0,3.551,3.5512,3.5489,3.5571,3.5586,3.5588,3.5632,3.5604,3.563,3.5621,3.5591,3.5594,3.5664,3.5666,3.5619,3.5745,3.5687,3.5698,3.5741,3.5759,3.5772,3.577,3.5551,0,0,0,0,0,3.5537,3.5578,3.5577,3.5649,3.5658,3.5644,3.5665,3.5646,3.566,3.5666,3.5666,3.568,3.5713,3.5736,3.5767,3.5853,3.5853,3.5894,3.5908,3.592,3.5929,3.5973,3.5991,3.5801,3.5801,3.5801,0,0,3.5592,3.5598,3.5625,3.5665,3.5674,3.5716,3.565,3.5697,3.5728,3.5673,3.5734,3.5735,3.5748,3.5824,3.5857,3.5828,3.5981,3.593,3.5939,3.5942,3.5983,3.6001,3.6017,3.5807,3.5806,3.5805,0,0,3.5713,3.5722,3.5783,3.5794,3.581,3.58,3.5815,3.5822,3.582,3.5881,3.5841,3.5876,3.5935,3.5946,3.5959,3.6085,3.6051,3.6096,3.6168,3.6212,3.6227,3.624,3.6283,3.6299,3.6105,3.6105,3.6105,0,3.5778,3.5841,3.5817,3.5868,3.5885,3.5839,3.5899,3.5911,3.5935,3.5948,3.5915,3.5988,3.5994,3.6071,3.6101,3.6114,3.6129,3.6094,3.6227,3.624,3.6251,3.6292,3.6309,3.611,3.611,3.6109,3.6109,0,3.592,3.5965,3.6011,3.6037,3.606,3.6115,3.6099,3.6125,3.6104,3.6098,3.616,3.6166,3.6196,3.6213,3.6193,3.6287,3.6268,3.6232,3.6173,3.6275,3.6313,3.6328,3.6118,3.6116,3.6114,3.6113,0,0,3.6089,3.6102,3.6119,3.613,3.6144,3.6177,3.6229,3.626,3.6282,3.6301,3.6343,3.6394,3.636,3.6376,3.6357,3.6395,3.6492,3.6353,3.6353,3.6378,3.6594,3.6621,3.6639,3.6471,3.6474,3.6476,3.6593,0,3.6208,3.6299,3.6279,3.6368,3.6407,3.6364,3.6409,3.6422,3.6417,3.6449,3.6443,3.648,3.6433,3.6442,3.6478,3.6473,3.6535,3.6464,3.6508,3.651,3.6504,3.6659,3.6687,3.6797,3.6607,3.661,3.6612,0,3.6358,3.6383,3.6477,3.6483,3.6499,3.6541,3.6567,3.6598,3.6611,3.6605,3.6623,3.6596,3.6646,3.6588,3.6656,3.6609,3.6625,3.6626,3.6629,3.6631,3.6566,3.6664,3.6832,3.6848,3.6635,3.6633,3.6631,0,3.647,3.6527,3.659,3.6601,3.6611,3.6641,3.6646,3.6656,3.6676,3.6698,3.671,3.6739,3.6754,3.6776,3.6757,3.6717,3.6828,3.6768,3.6823,3.6823,3.6847,3.6845,3.7018,3.686,3.686,3.686,3.6859,0,3.6604,3.6662,3.664,3.6679,3.6743,3.6719,3.6782,3.6782,3.6791,3.6828,3.6792,3.6827,3.6801,3.6834,3.6819,3.6877,3.6884,3.688,3.6875,3.6882,3.6883,3.6892,3.6883,3.6864,3.6863,3.6862,3.6862,0,3.6739,3.6727,3.6793,3.6797,3.6799,3.6846,3.6849,3.6884,3.6877,3.6924,3.6933,3.6922,3.6958,3.6942,3.698,3.697,3.7044,3.703,3.704,3.7036,3.7091,3.7086,3.7275,3.7298,3.7126,3.7128,3.7129,0,3.6824,3.6868,3.6878,3.69,3.6908,3.6945,3.6965,3.6943,3.6965,3.6983,3.7016,3.7049,3.7075,3.7135,3.7129,3.7158,3.7143,3.7207,3.7147,3.7152,3.7142,3.7139,3.7143,3.7219,3.7221,3.7222,3.7224,0,3.6976,3.6968,3.6999,3.7028,3.7053,3.7075,3.7093,3.7113,3.7092,3.7118,3.7155,3.7175,3.7214,3.7247,3.7273,3.7276,3.7246,3.7243,3.7257,3.7264,3.7267,3.7265,3.7072,3.7238,3.7237,3.7236,3.7235,3.7234,3.7088,3.7125,3.7137,3.7172,3.7184,3.7202,3.7235,3.7232,3.7263,3.7294,3.7278,3.7321,3.7332,3.7363,3.7371,3.7404,3.7378,3.7399,3.7404,3.7409,3.7415,3.7264,3.7408,3.7408,3.7408,3.7407,3.7407,0,3.7237,3.7243,3.7276,3.7303,3.733,3.7301,3.7319,3.7344,3.7383,3.7396,3.7422,3.7464,3.7496,3.7493,3.7522,3.7549,3.7536,3.7557,3.7554,3.7555,3.7437,3.7422,3.7567,3.7567,3.7567,3.7567,3.7567,3.7567,3.7318,3.7378,3.7372,3.7437,3.7442,3.7484,3.7497,3.7513,3.7523,3.7572,3.7599,3.7597,3.7604,3.7633,3.7661,3.7659,3.767,3.7697,3.769,3.758,3.7564,3.7548,3.7534,3.77,3.77,3.7805,3.7806,3.7807]}]]